Location: Kawakawa
(35.3830°S, 174.0670°E)
Time: 08:46:42
(UTC+13:00)

Cosmos 841 Rocket - Pass Details

Date: 24 January 2019
Orbit: 748 x 771 km, 74.0° (Epoch: 19 February)

Event Time Altitude Azimuth Distance (km) Brightness Sun altitude
Rises 22:55:16 0° 203° (SSW) 3,278 8.0 -23.5°
Reaches altitude 10° 22:57:42 10° 206° (SSW) 2,343 7.0 -23.8°
Maximum altitude 23:02:55 57° 283° (WNW) 913 3.9 -24.5°
Enters shadow 23:04:12 45° 332° (NNW) 1,054 4.0 -24.6°
